| time (UTC) | temp F | wind direction | speed knots | gust knots | rain 1hr in | rain 24hr in | rain mn in | humidity % | barometer mb |
| 20260503184604 | 57 | 337 | 3.5 | 5.2 | 0.00 | 0.00 | 0.00 | 36 | 1001.3 |
| 20260503184101 | 57 | 302 | 7.8 | 9.6 | 0.00 | 0.00 | 0.00 | 35 | 1001.6 |
| 20260503183557 | 57 | 315 | 3.5 | 7.8 | 0.00 | 0.00 | 0.00 | 36 | 1001.6 |
| 20260503183055 | 57 | 327 | 2.6 | 4.3 | 0.00 | 0.00 | 0.00 | 37 | 1001.6 |
| 20260503182553 | 56 | 285 | 6.1 | 9.6 | 0.00 | 0.00 | 0.00 | 35 | 1001.8 |
| 20260503182051 | 55 | 204 | 1.7 | 1.7 | 0.00 | 0.00 | 0.00 | 40 | 1001.8 |
| 20260503181548 | 56 | 333 | 4.3 | 7.8 | 0.00 | 0.00 | 0.00 | 36 | 1002.1 |
| 20260503181044 | 56 | 182 | 2.6 | 5.2 | 0.00 | 0.00 | 0.00 | 35 | 1001.7 |
| 20260503180541 | 56 | 310 | 5.2 | 6.1 | 0.00 | 0.00 | 0.00 | 36 | 1001.8 |
| 20260503180038 | 56 | 356 | 6.1 | 7.8 | 0.00 | 0.00 | 0.00 | 38 | 1001.7 |
| 20260503175535 | 55 | 310 | 6.1 | 8.7 | 0.00 | 0.00 | 0.00 | 36 | 1001.7 |
| 20260503175032 | 55 | 208 | 2.6 | 5.2 | 0.00 | 0.00 | 0.00 | 38 | 1001.8 |
| 20260503174524 | 55 | 265 | 4.3 | 5.2 | 0.00 | 0.00 | 0.00 | 35 | 1001.8 |
| 20260503174020 | 55 | 191 | 1.7 | 1.7 | 0.00 | 0.00 | 0.00 | 37 | 1001.7 |
| 20260503173515 | 56 | 281 | 5.2 | 8.7 | 0.00 | 0.00 | 0.00 | 36 | 1002.0 |
| 20260503173011 | 57 | 265 | 1.7 | 1.7 | 0.00 | 0.00 | 0.00 | 36 | 1002.1 |
| 20260503172509 | 55 | 265 | 2.6 | 2.6 | 0.00 | 0.00 | 0.00 | 36 | 1001.9 |
| 20260503172001 | 53 | 320 | 2.6 | 7.0 | 0.00 | 0.00 | 0.00 | 37 | 1002.1 |
| 20260503171457 | 55 | 204 | 7.0 | 9.6 | 0.00 | 0.00 | 0.00 | 38 | 1002.3 |
| 20260503170955 | 54 | 188 | 1.7 | 4.3 | 0.00 | 0.00 | 0.00 | 39 | 1002.2 |
| 20260503170450 | 54 | 313 | 2.6 | 2.6 | 0.00 | 0.00 | 0.00 | 40 | 1002.2 |
| 20260503150837 | 53 | 337 | 1.7 | 2.6 | 0.00 | 0.00 | 0.00 | 44 | 1002.6 |
| 20260503150333 | 51 | 232 | 3.5 | 4.3 | 0.00 | 0.00 | 0.00 | 46 | 1002.7 |
| 20260503140257 | 49 | 337 | 2.6 | 5.2 | 0.00 | 0.00 | 0.00 | 54 | 1003.0 |
| 20260503131227 | 47 | 78 | 0.9 | 0.9 | 0.00 | 0.00 | 0.00 | 56 | 1002.6 |
| 20260503130725 | 47 | 226 | 1.7 | 1.7 | 0.00 | 0.00 | 0.00 | 55 | 1002.8 |
| 20260503130222 | 47 | 306 | 2.6 | 2.6 | 0.00 | 0.00 | 0.00 | 58 | 1002.5 |
| 20260503120148 | 45 | 311 | 2.6 | 2.6 | 0.00 | 0.00 | 0.00 | 64 | 1002.4 |
| 20260503110615 | 44 | 174 | 0.9 | 0.9 | 0.00 | 0.00 | 0.00 | 66 | 1001.7 |
| 20260503110113 | 44 | 145 | 0.0 | 0.9 | 0.00 | 0.00 | 0.00 | 67 | 1001.7 |
| 20260503090444 | 44 | 6 | 3.5 | 4.3 | 0.00 | 0.00 | 0.00 | 66 | 1000.1 |
| 20260503081359 | 42 | 149 | 0.9 | 0.9 | 0.00 | 0.00 | 0.00 | 75 | 999.7 |
| 20260503080855 | 42 | 139 | 0.9 | 0.9 | 0.00 | 0.00 | 0.00 | 76 | 999.5 |
| 20260503080352 | 42 | 138 | 0.0 | 0.9 | 0.00 | 0.00 | 0.00 | 77 | 999.5 |
| 20260503072823 | 43 | 143 | 0.9 | 1.7 | 0.00 | 0.00 | 0.00 | 76 | 999.5 |
| 20260503072320 | 43 | 189 | 0.9 | 0.9 | 0.00 | 0.00 | 0.00 | 76 | 999.6 |
| 20260503071816 | 43 | 141 | 0.0 | 0.9 | 0.00 | 0.00 | 0.00 | 76 | 999.2 |
| 20260503071314 | 43 | 131 | 0.9 | 0.9 | 0.00 | 0.00 | 0.00 | 76 | 999.4 |
| 20260503070809 | 43 | 156 | 0.0 | 0.0 | 0.00 | 0.00 | 0.00 | 76 | 999.2 |
| 20260503070307 | 43 | 146 | 0.0 | 0.9 | 0.00 | 0.00 | 0.00 | 75 | 999.3 |
| 20260503060221 | 46 | 168 | 0.9 | 0.9 | 0.00 | 0.00 | 0.00 | 69 | 999.5 |
| 20260503054708 | 46 | 119 | 0.9 | 0.9 | 0.00 | 0.00 | 0.00 | 68 | 999.5 |
| 20260503054205 | 46 | 150 | 0.0 | 0.0 | 0.00 | 0.00 | 0.00 | 68 | 999.6 |
| 20260503053703 | 46 | 156 | 0.0 | 0.0 | 0.00 | 0.00 | 0.00 | 68 | 999.9 |
| 20260503053201 | 47 | 135 | 0.0 | 0.0 | 0.00 | 0.00 | 0.00 | 67 | 999.7 |
| 20260503052657 | 47 | 105 | 0.9 | 0.9 | 0.00 | 0.00 | 0.00 | 66 | 999.9 |
| 20260503052154 | 46 | 47 | 1.7 | 1.7 | 0.00 | 0.00 | 0.00 | 67 | 1000.0 |
| 20260503051649 | 47 | 145 | 0.0 | 0.0 | 0.00 | 0.00 | 0.00 | 65 | 1000.1 |
| 20260503051147 | 47 | 159 | 0.0 | 0.9 | 0.00 | 0.00 | 0.00 | 65 | 1000.0 |
| 20260503050644 | 47 | 147 | 0.0 | 0.0 | 0.00 | 0.00 | 0.00 | 65 | 999.9 |
| 20260503050140 | 47 | 306 | 1.7 | 2.6 | 0.00 | 0.00 | 0.00 | 64 | 999.9 |
| 20260503045638 | 47 | 152 | 0.9 | 0.9 | 0.00 | 0.00 | 0.00 | 63 | 1000.1 |
| 20260503045135 | 48 | 149 | 0.0 | 0.0 | 0.00 | 0.00 | 0.00 | 62 | 1000.1 |
| 20260503044631 | 47 | 145 | 0.0 | 0.9 | 0.00 | 0.00 | 0.00 | 63 | 1000.2 |
| 20260503044129 | 48 | 164 | 0.0 | 0.0 | 0.00 | 0.00 | 0.00 | 61 | 1000.3 |
| 20260503043626 | 48 | 146 | 0.0 | 0.0 | 0.00 | 0.00 | 0.00 | 61 | 1000.1 |
| 20260503043122 | 48 | 355 | 1.7 | 1.7 | 0.00 | 0.00 | 0.00 | 60 | 1000.1 |
| 20260503042619 | 48 | 218 | 0.9 | 1.7 | 0.00 | 0.00 | 0.00 | 59 | 1000.2 |
| 20260503042115 | 49 | 200 | 0.9 | 0.9 | 0.00 | 0.00 | 0.00 | 59 | 1000.3 |
| 20260503041612 | 49 | 167 | 1.7 | 1.7 | 0.00 | 0.00 | 0.00 | 58 | 1000.3 |
| 20260503041110 | 49 | 190 | 0.9 | 1.7 | 0.00 | 0.00 | 0.00 | 58 | 1000.4 |
| 20260503040606 | 49 | 212 | 1.7 | 1.7 | 0.00 | 0.00 | 0.00 | 58 | 1000.4 |
| 20260503040104 | 49 | 172 | 0.0 | 0.9 | 0.00 | 0.00 | 0.00 | 58 | 1000.6 |
| 20260503035600 | 49 | 309 | 3.5 | 5.2 | 0.00 | 0.00 | 0.00 | 57 | 1000.4 |
| 20260503035058 | 50 | 163 | 0.9 | 1.7 | 0.00 | 0.00 | 0.00 | 56 | 1000.4 |
| 20260503034555 | 50 | 239 | 2.6 | 2.6 | 0.00 | 0.00 | 0.00 | 55 | 1000.6 |
| 20260503034052 | 50 | 121 | 0.9 | 0.9 | 0.00 | 0.00 | 0.00 | 56 | 1000.5 |
| 20260503033549 | 49 | 158 | 0.9 | 0.9 | 0.00 | 0.00 | 0.00 | 56 | 1000.6 |
| 20260503033047 | 50 | 125 | 0.9 | 1.7 | 0.00 | 0.00 | 0.00 | 56 | 1000.5 |
| 20260503032545 | 50 | 245 | 1.7 | 1.7 | 0.00 | 0.00 | 0.00 | 55 | 1000.6 |
| 20260503032043 | 50 | 315 | 4.3 | 5.2 | 0.00 | 0.00 | 0.00 | 55 | 1000.4 |
| 20260503031541 | 50 | 125 | 1.7 | 1.7 | 0.00 | 0.00 | 0.00 | 55 | 1000.5 |
| 20260503031038 | 50 | 214 | 1.7 | 1.7 | 0.00 | 0.00 | 0.00 | 55 | 1000.4 |
| 20260503030533 | 50 | 154 | 0.0 | 0.0 | 0.00 | 0.00 | 0.00 | 55 | 1000.4 |
| 20260503030031 | 50 | 172 | 0.9 | 0.9 | 0.00 | 0.00 | 0.00 | 54 | 1000.4 |
| 20260503025527 | 50 | 226 | 1.7 | 1.7 | 0.00 | 0.00 | 0.00 | 53 | 1000.4 |
| 20260503025026 | 50 | 182 | 0.9 | 1.7 | 0.00 | 0.00 | 0.00 | 54 | 1000.6 |
| 20260503024521 | 50 | 159 | 0.0 | 0.9 | 0.00 | 0.00 | 0.00 | 55 | 1000.3 |
| 20260503024019 | 50 | 45 | 1.7 | 2.6 | 0.00 | 0.00 | 0.00 | 54 | 1000.4 |
| 20260503023515 | 50 | 312 | 1.7 | 1.7 | 0.00 | 0.00 | 0.00 | 53 | 1000.9 |
| 20260503023013 | 50 | 138 | 1.7 | 1.7 | 0.00 | 0.00 | 0.00 | 53 | 1000.6 |
| 20260503022509 | 50 | 162 | 1.7 | 1.7 | 0.00 | 0.00 | 0.00 | 53 | 1000.6 |
| 20260503022009 | 50 | 163 | 0.0 | 0.0 | 0.00 | 0.00 | 0.00 | 52 | 1000.5 |
| 20260503021505 | 50 | 232 | 1.7 | 1.7 | 0.00 | 0.00 | 0.00 | 52 | 1000.5 |
| 20260503021002 | 50 | 187 | 0.9 | 0.9 | 0.00 | 0.00 | 0.00 | 52 | 1000.5 |
| 20260503020500 | 51 | 164 | 0.0 | 0.9 | 0.00 | 0.00 | 0.00 | 52 | 1000.7 |
| 20260503015956 | 51 | 206 | 1.7 | 1.7 | 0.00 | 0.00 | 0.00 | 51 | 1000.5 |
| 20260503015453 | 51 | 185 | 0.0 | 0.9 | 0.00 | 0.00 | 0.00 | 51 | 1000.7 |
| 20260503014949 | 51 | 151 | 0.0 | 0.0 | 0.00 | 0.00 | 0.00 | 52 | 1000.9 |
| 20260503014446 | 51 | 157 | 0.0 | 0.0 | 0.00 | 0.00 | 0.00 | 50 | 1000.6 |
| 20260503013945 | 51 | 162 | 0.0 | 0.0 | 0.00 | 0.00 | 0.00 | 51 | 1000.6 |
| 20260503013442 | 52 | 181 | 0.9 | 1.7 | 0.00 | 0.00 | 0.00 | 50 | 1000.5 |
| 20260503012938 | 52 | 157 | 0.0 | 0.0 | 0.00 | 0.00 | 0.00 | 50 | 1000.6 |
| 20260503012437 | 52 | 72 | 0.9 | 1.7 | 0.00 | 0.00 | 0.00 | 51 | 1000.3 |
| 20260503011932 | 52 | 153 | 0.0 | 0.9 | 0.00 | 0.00 | 0.00 | 50 | 1000.5 |
| 20260503011429 | 52 | 163 | 0.0 | 0.9 | 0.00 | 0.00 | 0.00 | 50 | 1000.3 |
| 20260503010927 | 52 | 90 | 0.9 | 0.9 | 0.00 | 0.00 | 0.00 | 49 | 1000.3 |
| 20260503010423 | 52 | 203 | 0.9 | 0.9 | 0.00 | 0.00 | 0.00 | 50 | 1000.2 |
| 20260503005921 | 52 | 166 | 1.7 | 2.6 | 0.00 | 0.00 | 0.00 | 48 | 1000.3 |
| 20260503005418 | 53 | 154 | 0.0 | 0.0 | 0.00 | 0.00 | 0.00 | 49 | 1000.1 |
| 20260503004915 | 52 | 321 | 2.6 | 2.6 | 0.00 | 0.00 | 0.00 | 48 | 1000.3 |
| 20260503004412 | 53 | 172 | 0.9 | 1.7 | 0.00 | 0.00 | 0.00 | 47 | 1000.1 |
| 20260503003909 | 53 | 148 | 0.9 | 0.9 | 0.00 | 0.00 | 0.00 | 47 | 1000.1 |
| 20260503003406 | 53 | 141 | 0.0 | 0.0 | 0.00 | 0.00 | 0.00 | 48 | 999.8 |
| 20260503002903 | 53 | 274 | 3.5 | 5.2 | 0.00 | 0.00 | 0.00 | 46 | 1000.0 |
| 20260503002401 | 53 | 127 | 0.0 | 0.9 | 0.00 | 0.00 | 0.00 | 47 | 1000.0 |
| 20260503001856 | 53 | 122 | 0.0 | 0.0 | 0.00 | 0.00 | 0.00 | 46 | 999.8 |
| 20260503001352 | 53 | 150 | 0.0 | 0.0 | 0.00 | 0.00 | 0.00 | 46 | 1000.0 |
| 20260503000850 | 53 | 151 | 0.0 | 0.0 | 0.00 | 0.00 | 0.00 | 47 | 999.7 |
| 20260503000348 | 53 | 161 | 0.0 | 0.0 | 0.00 | 0.00 | 0.00 | 46 | 999.9 |
| 20260502235844 | 53 | 147 | 0.0 | 0.0 | 0.00 | 0.00 | 0.00 | 46 | 999.9 |
| 20260502235342 | 53 | 108 | 0.0 | 1.7 | 0.00 | 0.00 | 0.00 | 45 | 999.6 |
| 20260502234838 | 54 | 145 | 0.0 | 0.0 | 0.00 | 0.00 | 0.00 | 46 | 999.6 |
| 20260502234336 | 54 | 164 | 0.0 | 0.0 | 0.00 | 0.00 | 0.00 | 44 | 999.6 |
| 20260502233832 | 54 | 327 | 1.7 | 1.7 | 0.00 | 0.00 | 0.00 | 42 | 999.5 |
| 20260502233328 | 54 | 161 | 0.0 | 0.0 | 0.00 | 0.00 | 0.00 | 42 | 999.7 |
| 20260502232826 | 54 | 167 | 0.0 | 0.0 | 0.00 | 0.00 | 0.00 | 43 | 999.4 |
| 20260502232322 | 54 | 150 | 0.9 | 0.9 | 0.00 | 0.00 | 0.00 | 44 | 999.4 |
| 20260502231818 | 55 | 154 | 0.9 | 0.9 | 0.00 | 0.00 | 0.00 | 43 | 999.5 |
| 20260502231316 | 55 | 201 | 0.9 | 1.7 | 0.00 | 0.00 | 0.00 | 42 | 999.3 |
| 20260502230814 | 55 | 164 | 0.9 | 1.7 | 0.00 | 0.00 | 0.00 | 42 | 999.4 |
| 20260502230312 | 55 | 139 | 0.9 | 0.9 | 0.00 | 0.00 | 0.00 | 42 | 999.5 |
| 20260502225808 | 56 | 178 | 0.0 | 0.0 | 0.00 | 0.00 | 0.00 | 42 | 999.6 |
| 20260502225305 | 55 | 162 | 0.0 | 0.0 | 0.00 | 0.00 | 0.00 | 42 | 999.6 |
| 20260502224802 | 55 | 166 | 0.0 | 0.0 | 0.00 | 0.00 | 0.00 | 42 | 999.4 |
| 20260502224258 | 55 | 315 | 5.2 | 7.0 | 0.00 | 0.00 | 0.00 | 42 | 999.5 |
| 20260502223756 | 56 | 168 | 0.9 | 0.9 | 0.00 | 0.00 | 0.00 | 44 | 999.6 |
| 20260502223254 | 56 | 286 | 2.6 | 2.6 | 0.00 | 0.00 | 0.00 | 40 | 999.5 |
| 20260502222751 | 57 | 134 | 0.9 | 0.9 | 0.00 | 0.00 | 0.00 | 41 | 999.4 |
| 20260502222248 | 56 | 194 | 1.7 | 1.7 | 0.00 | 0.00 | 0.00 | 42 | 999.3 |
| 20260502221744 | 57 | 194 | 2.6 | 2.6 | 0.00 | 0.00 | 0.00 | 41 | 999.5 |
| 20260502221240 | 57 | 306 | 2.6 | 4.3 | 0.00 | 0.00 | 0.00 | 41 | 999.2 |
| 20260502220737 | 56 | 247 | 1.7 | 1.7 | 0.00 | 0.00 | 0.00 | 41 | 999.2 |
| 20260502220233 | 56 | 135 | 0.0 | 0.0 | 0.00 | 0.00 | 0.00 | 43 | 999.4 |
| 20260502215730 | 57 | 321 | 2.6 | 2.6 | 0.00 | 0.00 | 0.00 | 40 | 999.4 |
| 20260502215227 | 59 | 299 | 4.3 | 5.2 | 0.00 | 0.00 | 0.00 | 38 | 999.3 |
| 20260502214725 | 57 | 289 | 1.7 | 2.6 | 0.00 | 0.00 | 0.00 | 40 | 999.2 |
| 20260502214221 | 59 | 332 | 1.7 | 1.7 | 0.00 | 0.00 | 0.00 | 39 | 999.4 |
| 20260502213719 | 58 | 212 | 2.6 | 4.3 | 0.00 | 0.00 | 0.00 | 39 | 999.4 |
| 20260502213216 | 58 | 141 | 1.7 | 1.7 | 0.00 | 0.00 | 0.00 | 42 | 999.1 |
| 20260502212714 | 57 | 166 | 0.0 | 0.9 | 0.00 | 0.00 | 0.00 | 42 | 999.2 |
| 20260502212212 | 57 | 359 | 2.6 | 2.6 | 0.00 | 0.00 | 0.00 | 41 | 999.0 |
| 20260502211708 | 57 | 108 | 1.7 | 2.6 | 0.00 | 0.00 | 0.00 | 42 | 999.2 |
| 20260502211205 | 58 | 293 | 3.5 | 4.3 | 0.00 | 0.00 | 0.00 | 40 | 999.1 |
| 20260502210702 | 58 | 149 | 0.9 | 0.9 | 0.00 | 0.00 | 0.00 | 41 | 999.2 |
| 20260502210159 | 58 | 291 | 1.7 | 1.7 | 0.00 | 0.00 | 0.00 | 40 | 998.8 |
| 20260502205656 | 57 | 321 | 2.6 | 5.2 | 0.00 | 0.00 | 0.00 | 43 | 998.9 |
| 20260502205147 | 58 | 247 | 0.9 | 1.7 | 0.00 | 0.00 | 0.00 | 41 | 998.6 |
| 20260502204644 | 58 | 124 | 2.6 | 2.6 | 0.00 | 0.00 | 0.00 | 41 | 998.8 |
| 20260502204142 | 58 | 156 | 0.9 | 1.7 | 0.00 | 0.00 | 0.00 | 43 | 998.9 |
| 20260502203638 | 57 | 164 | 0.9 | 0.9 | 0.00 | 0.00 | 0.00 | 43 | 998.7 |
| 20260502203137 | 57 | 127 | 1.7 | 1.7 | 0.00 | 0.00 | 0.00 | 44 | 998.8 |
| 20260502202631 | 57 | 56 | 1.7 | 1.7 | 0.00 | 0.00 | 0.00 | 44 | 998.9 |
| 20260502202130 | 57 | 157 | 0.0 | 0.0 | 0.00 | 0.00 | 0.00 | 45 | 998.9 |
| 20260502201626 | 57 | 246 | 2.6 | 2.6 | 0.00 | 0.00 | 0.00 | 43 | 998.9 |
| 20260502201122 | 57 | 174 | 1.7 | 2.6 | 0.00 | 0.00 | 0.00 | 42 | 999.1 |
| 20260502200618 | 57 | 118 | 1.7 | 1.7 | 0.00 | 0.00 | 0.00 | 45 | 999.0 |
| 20260502200116 | 57 | 48 | 1.7 | 1.7 | 0.00 | 0.00 | 0.00 | 43 | 999.1 |
| 20260502195614 | 58 | 196 | 0.9 | 1.7 | 0.00 | 0.00 | 0.00 | 47 | 999.2 |
| 20260502195109 | 58 | 155 | 0.9 | 1.7 | 0.00 | 0.00 | 0.00 | 44 | 999.1 |
| 20260502194606 | 58 | 173 | 0.9 | 0.9 | 0.00 | 0.00 | 0.00 | 42 | 999.4 |
| 20260502194056 | 58 | 189 | 2.6 | 2.6 | 0.00 | 0.00 | 0.00 | 47 | 999.5 |
| 20260502193554 | 57 | 113 | 0.9 | 0.9 | 0.00 | 0.00 | 0.00 | 45 | 999.6 |
| 20260502193050 | 57 | 106 | 0.9 | 0.9 | 0.00 | 0.00 | 0.00 | 45 | 999.6 |
| 20260502192546 | 58 | 299 | 2.6 | 2.6 | 0.00 | 0.00 | 0.00 | 44 | 999.7 |
| 20260502192044 | 59 | 154 | 1.7 | 1.7 | 0.00 | 0.00 | 0.00 | 43 | 999.9 |
| 20260502191540 | 59 | 249 | 4.3 | 5.2 | 0.00 | 0.00 | 0.00 | 41 | 999.9 |
| 20260502191038 | 57 | 179 | 0.9 | 1.7 | 0.00 | 0.00 | 0.00 | 44 | 1000.0 |
| 20260502190536 | 58 | 318 | 3.5 | 5.2 | 0.00 | 0.00 | 0.00 | 42 | 999.9 |
| 20260502190033 | 58 | 224 | 1.7 | 1.7 | 0.00 | 0.00 | 0.00 | 44 | 1000.1 |
| 20260502185527 | 59 | 175 | 0.9 | 0.9 | 0.00 | 0.00 | 0.00 | 43 | 1000.2 |
| 20260502185025 | 58 | 93 | 1.7 | 1.7 | 0.00 | 0.00 | 0.00 | 44 | 1000.6 |